RSC20JX GCLP-GCFV

Flight info

Callsign RSC20JX
Flight time N/A
Altitude 12000
Route KOPUD
Aircraft AT76/M-SDFGRY/LB1

Departure

Time 2026-04-30 22:33
Airport Gran Canaria Airport (GCLP)

Arrival

Time N/A
Airport Fuerteventura Airport (GCFV)
Time Latitude Longitude Altitude Speed Heading
2026-04-30 22:12 27.93497 -15.38805 74 ft 0 kts 292°
2026-04-30 22:29 27.93480 -15.38879 79 ft 6 kts 182°
2026-04-30 22:29 27.93429 -15.38840 73 ft 12 kts 138°
2026-04-30 22:30 27.93116 -15.38890 65 ft 11 kts 207°
2026-04-30 22:31 27.92580 -15.39130 90 ft 25 kts 203°
2026-04-30 22:32 27.92205 -15.39122 75 ft 17 kts 97°
2026-04-30 22:32 27.92410 -15.38993 68 ft 40 kts 20°
2026-04-30 22:33 27.94518 -15.38107 693 ft 132 kts 21°
2026-04-30 22:33 27.96317 -15.37539 1684 ft 139 kts
2026-04-30 22:34 27.99491 -15.36644 2981 ft 161 kts 17°
2026-04-30 22:35 28.01570 -15.35765 4103 ft 162 kts 19°
2026-04-30 22:36 28.05862 -15.33887 6204 ft 167 kts 18°
2026-04-30 22:36 28.06958 -15.33480 6762 ft 162 kts 20°
2026-04-30 22:37 28.08521 -15.30027 7843 ft 181 kts 86°
2026-04-30 22:37 28.08641 -15.28631 8370 ft 178 kts 77°
2026-04-30 22:37 28.08890 -15.25731 9089 ft 196 kts 80°
2026-04-30 22:38 28.08984 -15.22628 9853 ft 200 kts 92°
2026-04-30 22:38 28.08965 -15.19494 10488 ft 202 kts 89°
2026-04-30 22:39 28.08999 -15.17900 10764 ft 203 kts 88°
2026-04-30 22:39 28.09144 -15.13082 11575 ft 205 kts 86°
2026-04-30 22:40 28.09590 -15.08097 11957 ft 226 kts 82°
2026-04-30 22:41 28.10258 -15.02523 11998 ft 248 kts 82°
2026-04-30 22:41 28.10745 -14.98599 11999 ft 256 kts 82°
2026-04-30 22:42 28.11734 -14.90454 11999 ft 264 kts 84°
2026-04-30 22:43 28.11976 -14.86291 11999 ft 266 kts 88°
2026-04-30 22:43 28.12085 -14.82090 11999 ft 267 kts 89°
2026-04-30 22:44 28.12154 -14.78590 11999 ft 267 kts 89°
2026-04-30 22:45 28.12010 -14.70214 12000 ft 263 kts 111°
2026-04-30 22:45 28.10495 -14.66419 12000 ft 266 kts 116°
2026-04-30 22:46 28.08866 -14.62654 12000 ft 266 kts 116°
2026-04-30 22:47 28.10209 -14.54761 12001 ft 265 kts 68°
2026-04-30 22:47 28.11661 -14.50823 11475 ft 284 kts 67°
2026-04-30 22:48 28.13228 -14.46614 10719 ft 286 kts 67°
2026-04-30 22:49 28.15524 -14.40482 9588 ft 280 kts 67°
2026-04-30 22:49 28.17448 -14.34368 8462 ft 271 kts 84°
2026-04-30 22:50 28.18683 -14.25982 6960 ft 270 kts 77°
2026-04-30 22:51 28.19510 -14.21860 6363 ft 264 kts 77°
2026-04-30 22:51 28.20322 -14.17853 5873 ft 259 kts 77°
2026-04-30 22:52 28.20724 -14.15871 5617 ft 257 kts 77°
2026-04-30 22:52 28.21521 -14.11945 5115 ft 254 kts 77°
2026-04-30 22:53 28.22308 -14.08061 4612 ft 252 kts 77°
2026-04-30 22:53 28.23090 -14.04194 4115 ft 251 kts 77°
2026-04-30 22:53 28.23478 -14.02270 3864 ft 251 kts 77°
2026-04-30 22:54 28.24250 -13.98452 3366 ft 250 kts 77°
2026-04-30 22:55 28.25412 -13.92698 2743 ft 246 kts 77°
2026-04-30 22:55 28.26091 -13.89292 2532 ft 191 kts 76°
2026-04-30 22:56 28.27642 -13.87503 2517 ft 151 kts 31°
2026-04-30 22:56 28.30430 -13.86846 2502 ft 134 kts
2026-04-30 22:57 28.32348 -13.86783 2474 ft 141 kts
2026-04-30 22:57 28.34252 -13.86713 2127 ft 127 kts
2026-04-30 22:58 28.35961 -13.86689 1594 ft 118 kts 359°
2026-04-30 22:59 28.38410 -13.86602 1115 ft 122 kts 360°
2026-04-30 22:59 28.40915 -13.86529 676 ft 119 kts